sat.trackr.live / text

‹ back to catalog

STARLINK-4111

NORAD 53159 · 2022-083AD

PAYLOAD ACTIVE UNKNOWN

§ Identity

Operator
Country
US
Launch date
2022-07-17
Launch site
AFETR
Launch vehicle
Mass (kg)
RCS (m²)

Purposes: comms

External: N2YO · Heavens-Above · Gunter

§ Orbital elements

Epoch: 2026-09-19T18:40:53.271840Z

Period
93.79 min
Inclination
53.1613°
Eccentricity
0.0000823
Mean motion
15.35391780 rev/d
Perigee alt
459.2 km
Apogee alt
460.3 km
Semi-major
6,837.9 km
B*
-1.0822e-5
RAAN
7.1177°
Arg perigee
74.4116°
Mean anomaly
285.6978°
Rev number
23,073

§ Raw data

STARLINK-41111 53159U 22083AD  26262.77839435 -.00000757  00000+0 -10822-4 0  99992 53159  53.1613   7.1177 0000823  74.4116 285.6978 15.35391780230735

JSON: /api/v1/satellites/53159 · /tle

For live sub-satellite position, see the globe view (requires WebGL).

§ Visibility from observer

Set your observer location to see the next 7 days of passes ≥ 10°. The values pass through the URL so the page stays shareable.

No JS? Fill the form by hand. The geolocation button needs JavaScript.